CPA143 VHHH-YPPH

Flight info

Callsign CPA143
Flight time N/A
Altitude 38000
Route DALOL V652 SABNO/N0487F390 A583 AKOTA/N0490F380 M754 GUKUM/N0485F400 M754 VINIK M522 ELANG/N0484F410 M522 BLI G578 EGATU L514 MUNNI/N0488F400 L514 AVPAL Q38 JULIM
Aircraft A359/H-SDE2E3GHIJ3J4J5LM1ORWXY/LB1D1

Departure

Time 2026-05-05 11:57
Airport Hong Kong International Airport (VHHH)

Arrival

Time N/A
Airport Perth International Airport (YPPH)
Time Latitude Longitude Altitude Speed Heading
2026-05-05 11:10 22.31507 113.92485 38 ft 0 kts 206°
2026-05-05 11:35 22.31510 113.92487 38 ft 3 kts 206°
2026-05-05 11:36 22.31535 113.92500 38 ft 4 kts 206°
2026-05-05 11:36 22.31557 113.92512 35 ft 2 kts 206°
2026-05-05 11:36 22.31577 113.92524 27 ft 4 kts 229°
2026-05-05 11:36 22.31586 113.92546 16 ft 4 kts 288°
2026-05-05 11:37 22.31575 113.92571 38 ft 4 kts 296°
2026-05-05 11:37 22.31568 113.92588 36 ft 0 kts 296°
2026-05-05 11:40 22.31568 113.92587 38 ft 0 kts 296°
2026-05-05 11:40 22.31570 113.92583 38 ft 6 kts 295°
2026-05-05 11:40 22.31600 113.92514 38 ft 11 kts 295°
2026-05-05 11:40 22.31636 113.92433 38 ft 13 kts 292°
2026-05-05 11:41 22.31632 113.92335 38 ft 14 kts 256°
2026-05-05 11:41 22.31607 113.92254 38 ft 10 kts 251°
2026-05-05 11:41 22.31581 113.92172 38 ft 12 kts 250°
2026-05-05 11:41 22.31550 113.92079 38 ft 14 kts 250°
2026-05-05 11:42 22.31513 113.91973 38 ft 16 kts 250°
2026-05-05 11:42 22.31474 113.91854 38 ft 18 kts 250°
2026-05-05 11:42 22.31438 113.91745 38 ft 15 kts 251°
2026-05-05 11:42 22.31403 113.91631 38 ft 17 kts 253°
2026-05-05 11:43 22.31364 113.91505 38 ft 18 kts 251°
2026-05-05 11:43 22.31325 113.91380 38 ft 17 kts 251°
2026-05-05 11:43 22.31285 113.91257 38 ft 16 kts 251°
2026-05-05 11:43 22.31250 113.91146 38 ft 16 kts 251°
2026-05-05 11:44 22.31212 113.91029 38 ft 17 kts 251°
2026-05-05 11:44 22.31176 113.90918 38 ft 15 kts 251°
2026-05-05 11:44 22.31140 113.90807 38 ft 16 kts 251°
2026-05-05 11:44 22.31101 113.90684 38 ft 18 kts 251°
2026-05-05 11:45 22.31059 113.90551 38 ft 20 kts 251°
2026-05-05 11:45 22.31025 113.90447 38 ft 6 kts 250°
2026-05-05 11:45 22.30994 113.90424 38 ft 6 kts 182°
2026-05-05 11:45 22.30936 113.90439 38 ft 11 kts 164°
2026-05-05 11:46 22.30851 113.90467 38 ft 15 kts 161°
2026-05-05 11:46 22.30748 113.90506 38 ft 15 kts 161°
2026-05-05 11:46 22.30646 113.90543 38 ft 16 kts 161°
2026-05-05 11:46 22.30536 113.90583 38 ft 15 kts 161°
2026-05-05 11:47 22.30433 113.90621 38 ft 16 kts 161°
2026-05-05 11:47 22.30324 113.90661 38 ft 15 kts 161°
2026-05-05 11:47 22.30222 113.90699 38 ft 16 kts 161°
2026-05-05 11:47 22.30141 113.90727 38 ft 7 kts 169°
2026-05-05 11:48 22.30084 113.90671 38 ft 10 kts 248°
2026-05-05 11:48 22.30057 113.90587 38 ft 13 kts 251°
2026-05-05 11:48 22.30024 113.90488 38 ft 15 kts 250°
2026-05-05 11:49 22.29976 113.90338 38 ft 17 kts 250°
2026-05-05 11:49 22.29948 113.90254 38 ft 18 kts 251°
2026-05-05 11:49 22.29904 113.90121 38 ft 20 kts 250°
2026-05-05 11:49 22.29860 113.89979 38 ft 16 kts 252°
2026-05-05 11:50 22.29829 113.89880 38 ft 14 kts 251°
2026-05-05 11:50 22.29793 113.89790 38 ft 12 kts 228°
2026-05-05 11:50 22.29754 113.89773 38 ft 0 kts 185°
2026-05-05 11:55 22.29743 113.89773 38 ft 4 kts 178°
2026-05-05 11:55 22.29687 113.89785 36 ft 12 kts 163°
2026-05-05 11:55 22.29642 113.89826 36 ft 8 kts 107°
2026-05-05 11:55 22.29649 113.89893 36 ft 10 kts 73°
2026-05-05 11:56 22.29653 113.89904 36 ft 0 kts 72°
2026-05-05 11:56 22.29678 113.89986 36 ft 31 kts 71°
2026-05-05 11:56 22.29827 113.90448 37 ft 97 kts 71°
2026-05-05 11:57 22.30114 113.91336 38 ft 152 kts 71°
2026-05-05 11:57 22.30490 113.92488 504 ft 161 kts 71°
2026-05-05 11:57 22.30867 113.93602 1266 ft 157 kts 71°
2026-05-05 11:57 22.31262 113.94770 1683 ft 176 kts 72°
2026-05-05 11:58 22.31706 113.96082 2020 ft 197 kts 71°
2026-05-05 11:58 22.32204 113.97543 2378 ft 217 kts 72°
2026-05-05 11:58 22.32742 113.99130 2804 ft 233 kts 72°
2026-05-05 11:58 22.33299 114.00811 3395 ft 240 kts 73°
2026-05-05 11:59 22.33794 114.02541 4059 ft 243 kts 77°
2026-05-05 11:59 22.33874 114.04342 4768 ft 239 kts 101°
2026-05-05 11:59 22.33338 114.06011 5491 ft 235 kts 122°
2026-05-05 11:59 22.32310 114.07361 6155 ft 233 kts 143°
2026-05-05 12:00 22.30911 114.08313 6599 ft 244 kts 160°
2026-05-05 12:00 22.29249 114.08758 7133 ft 249 kts 178°
2026-05-05 12:00 22.27498 114.08795 7708 ft 258 kts 183°
2026-05-05 12:00 22.25646 114.08750 8176 ft 272 kts 183°
2026-05-05 12:01 22.23725 114.08707 8856 ft 278 kts 183°
2026-05-05 12:01 22.21778 114.08675 9622 ft 282 kts 182°
2026-05-05 12:01 22.19805 114.08649 10288 ft 289 kts 183°
2026-05-05 12:01 22.17734 114.08827 10585 ft 311 kts 169°
2026-05-05 12:02 22.15740 114.09917 10832 ft 337 kts 142°
2026-05-05 12:02 22.14262 114.11971 11097 ft 359 kts 120°
2026-05-05 12:02 22.13121 114.14441 11359 ft 375 kts 117°
2026-05-05 12:02 22.11978 114.17009 11800 ft 384 kts 117°
2026-05-05 12:03 22.10794 114.19606 12338 ft 388 kts 118°
2026-05-05 12:03 22.09575 114.22229 12861 ft 394 kts 118°
2026-05-05 12:03 22.08281 114.24853 13342 ft 398 kts 124°
2026-05-05 12:03 22.06495 114.27117 13830 ft 397 kts 142°
2026-05-05 12:04 22.04312 114.28949 14299 ft 399 kts 147°
2026-05-05 12:04 22.02054 114.30713 14759 ft 403 kts 148°
2026-05-05 12:04 21.99773 114.32491 15217 ft 406 kts 148°
2026-05-05 12:04 21.97473 114.34290 15686 ft 410 kts 148°
2026-05-05 12:05 21.95164 114.36104 16142 ft 414 kts 147°
2026-05-05 12:05 21.92828 114.37945 16593 ft 417 kts 148°
2026-05-05 12:05 21.90477 114.39792 17052 ft 420 kts 148°
2026-05-05 12:05 21.88114 114.41657 17520 ft 424 kts 147°
2026-05-05 12:06 21.85914 114.43815 17919 ft 434 kts 134°
2026-05-05 12:06 21.84292 114.46593 18310 ft 445 kts 115°
2026-05-05 12:06 21.83305 114.49768 18687 ft 450 kts 107°
2026-05-05 12:06 21.82479 114.53022 19080 ft 452 kts 107°
2026-05-05 12:07 21.81658 114.56296 19480 ft 455 kts 107°
2026-05-05 12:07 21.80833 114.59548 19877 ft 457 kts 107°
2026-05-05 12:07 21.79975 114.62900 20271 ft 460 kts 107°
2026-05-05 12:07 21.79121 114.66219 20692 ft 461 kts 107°
2026-05-05 12:08 21.78270 114.69511 21101 ft 464 kts 107°
2026-05-05 12:08 21.77402 114.72863 21498 ft 466 kts 107°
2026-05-05 12:08 21.76527 114.76236 21892 ft 469 kts 107°
2026-05-05 12:08 21.75647 114.79624 22275 ft 472 kts 107°
2026-05-05 12:09 21.74685 114.83010 22644 ft 474 kts 113°
2026-05-05 12:09 21.73211 114.86164 23017 ft 472 kts 125°
2026-05-05 12:09 21.71373 114.89098 23394 ft 472 kts 129°
2026-05-05 12:09 21.69402 114.91932 23731 ft 474 kts 131°
2026-05-05 12:10 21.67364 114.94736 24015 ft 477 kts 132°
2026-05-05 12:10 21.65301 114.97543 24311 ft 480 kts 131°
2026-05-05 12:10 21.63230 115.00379 24620 ft 484 kts 131°
2026-05-05 12:10 21.61162 115.03246 24938 ft 487 kts 131°
2026-05-05 12:11 21.59088 115.06138 25302 ft 490 kts 131°
2026-05-05 12:11 21.57009 115.09052 25649 ft 493 kts 130°
2026-05-05 12:11 21.54895 115.11971 25993 ft 495 kts 133°
2026-05-05 12:11 21.52501 115.14613 26362 ft 493 kts 143°
2026-05-05 12:12 21.49815 115.16893 26726 ft 494 kts 147°
2026-05-05 12:12 21.47019 115.19062 27085 ft 496 kts 149°
2026-05-05 12:12 21.44173 115.21167 27446 ft 499 kts 150°
2026-05-05 12:12 21.41284 115.23258 27807 ft 502 kts 150°
2026-05-05 12:13 21.38378 115.25351 28164 ft 505 kts 150°
2026-05-05 12:13 21.35456 115.27460 28549 ft 507 kts 150°
2026-05-05 12:13 21.32517 115.29591 28885 ft 511 kts 150°
2026-05-05 12:13 21.29567 115.31738 29226 ft 515 kts 150°
2026-05-05 12:14 21.26593 115.33908 29550 ft 518 kts 149°
2026-05-05 12:14 21.23614 115.36088 29918 ft 520 kts 149°
2026-05-05 12:14 21.20621 115.38282 30200 ft 523 kts 149°
2026-05-05 12:14 21.17606 115.40485 30468 ft 525 kts 149°
2026-05-05 12:15 21.14616 115.42665 30742 ft 527 kts 149°
2026-05-05 12:15 21.11536 115.44909 31025 ft 530 kts 149°
2026-05-05 12:15 21.08526 115.47101 31288 ft 532 kts 149°
2026-05-05 12:15 21.05461 115.49333 31532 ft 533 kts 149°
2026-05-05 12:16 21.02350 115.51597 31845 ft 534 kts 149°
2026-05-05 12:16 20.99273 115.53837 32092 ft 536 kts 149°
2026-05-05 12:16 20.96186 115.56082 32341 ft 537 kts 149°
2026-05-05 12:16 20.93094 115.58331 32687 ft 537 kts 149°
2026-05-05 12:17 20.90063 115.60535 33036 ft 535 kts 149°
2026-05-05 12:17 20.86984 115.62772 33371 ft 535 kts 149°
2026-05-05 12:17 20.83910 115.65005 33726 ft 534 kts 149°
2026-05-05 12:17 20.80847 115.67228 34128 ft 531 kts 150°
2026-05-05 12:18 20.77799 115.69440 34422 ft 530 kts 150°
2026-05-05 12:18 20.74751 115.71660 34668 ft 530 kts 149°
2026-05-05 12:18 20.71706 115.73868 34905 ft 529 kts 149°
2026-05-05 12:18 20.68663 115.76068 35228 ft 527 kts 149°
2026-05-05 12:19 20.65628 115.78261 35513 ft 526 kts 149°
2026-05-05 12:19 20.62597 115.80450 35726 ft 526 kts 149°
2026-05-05 12:19 20.59564 115.82640 35958 ft 526 kts 149°
2026-05-05 12:19 20.56533 115.84830 36189 ft 526 kts 149°
2026-05-05 12:20 20.53503 115.87018 36415 ft 526 kts 149°
2026-05-05 12:20 20.50514 115.89176 36629 ft 526 kts 149°
2026-05-05 12:20 20.47487 115.91361 36849 ft 525 kts 149°
2026-05-05 12:20 20.44460 115.93545 37068 ft 525 kts 149°
2026-05-05 12:21 20.41435 115.95726 37286 ft 525 kts 149°
2026-05-05 12:21 20.38415 115.97887 37539 ft 522 kts 150°
2026-05-05 12:21 20.35242 115.99744 37730 ft 517 kts 159°
2026-05-05 12:21 20.31884 116.01050 37882 ft 512 kts 169°
2026-05-05 12:22 20.24904 116.01772 37968 ft 500 kts 189°
2026-05-05 12:22 20.17994 116.00973 37964 ft 499 kts 192°
2026-05-05 12:23 20.11127 115.99957 37957 ft 498 kts 192°
2026-05-05 12:23 20.04251 115.98955 37958 ft 499 kts 192°
2026-05-05 12:24 19.97374 115.97993 37955 ft 499 kts 192°
2026-05-05 12:24 19.90491 115.97049 37955 ft 499 kts 192°
2026-05-05 12:25 19.83604 115.96108 37955 ft 499 kts 192°
2026-05-05 12:25 19.76718 115.95165 37949 ft 499 kts 191°
2026-05-05 12:26 19.69819 115.94220 37956 ft 500 kts 192°
2026-05-05 12:26 19.62911 115.93275 37953 ft 501 kts 191°
2026-05-05 12:27 19.56001 115.92330 37952 ft 501 kts 192°
2026-05-05 12:27 19.49138 115.91393 37952 ft 501 kts 191°
2026-05-05 12:28 19.42185 115.90444 37938 ft 501 kts 191°
2026-05-05 12:28 19.35272 115.89502 37948 ft 501 kts 191°
2026-05-05 12:29 19.28405 115.88566 37941 ft 501 kts 191°
2026-05-05 12:29 19.21492 115.87625 37956 ft 501 kts 191°
2026-05-05 12:30 19.14583 115.86686 37941 ft 501 kts 191°
2026-05-05 12:30 19.07675 115.85748 37952 ft 500 kts 191°
2026-05-05 12:31 19.00710 115.85338 37971 ft 507 kts 178°
2026-05-05 12:31 18.97218 115.85923 38130 ft 511 kts 169°
2026-05-05 12:31 18.93838 115.87129 38334 ft 514 kts 158°
2026-05-05 12:32 18.91640 115.88188 38455 ft 515 kts 157°
2026-05-05 12:32 18.88427 115.89870 38629 ft 515 kts 155°
2026-05-05 12:32 18.85253 115.91618 38777 ft 515 kts 154°
2026-05-05 12:32 18.82089 115.93391 38919 ft 514 kts 154°
2026-05-05 12:33 18.75770 115.96922 38941 ft 513 kts 155°
2026-05-05 12:33 18.69459 116.00400 38941 ft 512 kts 155°
2026-05-05 12:34 18.63138 116.03854 38933 ft 511 kts 155°
2026-05-05 12:34 18.56818 116.07300 38934 ft 511 kts 155°
2026-05-05 12:35 18.50498 116.10745 38929 ft 511 kts 155°
2026-05-05 12:35 18.44191 116.14182 38929 ft 510 kts 155°
2026-05-05 12:36 18.37930 116.17590 38935 ft 510 kts 155°
2026-05-05 12:36 18.31626 116.21020 38933 ft 510 kts 155°
2026-05-05 12:37 18.25329 116.24442 38926 ft 510 kts 155°
2026-05-05 12:37 18.19028 116.27864 38933 ft 509 kts 155°
2026-05-05 12:38 18.12746 116.31273 38922 ft 507 kts 155°
2026-05-05 12:38 18.06474 116.34674 38922 ft 507 kts 155°
2026-05-05 12:39 18.00207 116.38069 38919 ft 507 kts 155°
2026-05-05 12:39 17.93940 116.41461 38928 ft 507 kts 155°
2026-05-05 12:40 17.87669 116.44853 38919 ft 507 kts 155°
2026-05-05 12:40 17.81401 116.48241 38925 ft 506 kts 156°
2026-05-05 12:41 17.75145 116.51626 38925 ft 506 kts 156°
2026-05-05 12:41 17.68888 116.55003 38923 ft 506 kts 156°
2026-05-05 12:42 17.62625 116.58374 38915 ft 506 kts 156°
2026-05-05 12:42 17.56363 116.61745 38927 ft 506 kts 156°
2026-05-05 12:43 17.50095 116.65118 38914 ft 506 kts 156°
2026-05-05 12:43 17.43829 116.68489 38914 ft 507 kts 156°
2026-05-05 12:44 17.37553 116.71862 38922 ft 507 kts 156°
2026-05-05 12:44 17.31278 116.75232 38923 ft 507 kts 156°
2026-05-05 12:45 17.25011 116.78596 38912 ft 507 kts 156°
2026-05-05 12:45 17.18732 116.81962 38910 ft 507 kts 156°
2026-05-05 12:46 17.12505 116.85299 38915 ft 507 kts 155°
2026-05-05 12:46 17.06219 116.88664 38914 ft 507 kts 155°
2026-05-05 12:47 16.99941 116.92023 38914 ft 507 kts 155°
2026-05-05 12:47 16.93665 116.95378 38920 ft 507 kts 155°
2026-05-05 12:48 16.87386 116.98732 38911 ft 507 kts 155°
2026-05-05 12:48 16.81111 117.02081 38919 ft 507 kts 155°
2026-05-05 12:49 16.74834 117.05429 38912 ft 507 kts 155°
2026-05-05 12:49 16.68558 117.08774 38917 ft 507 kts 155°
2026-05-05 12:50 16.62279 117.12118 38914 ft 507 kts 155°
2026-05-05 12:50 16.55996 117.15462 38911 ft 507 kts 155°
2026-05-05 12:51 16.49641 117.18599 38904 ft 503 kts 163°
2026-05-05 12:51 16.42857 117.19973 38910 ft 494 kts 182°
2026-05-05 12:52 16.36043 117.19474 38912 ft 490 kts 189°
2026-05-05 12:52 16.29279 117.18576 38911 ft 490 kts 191°
2026-05-05 12:53 16.22515 117.17643 38906 ft 490 kts 190°
2026-05-05 12:53 16.15740 117.16745 38908 ft 491 kts 190°
2026-05-05 12:54 16.05549 117.15431 38909 ft 492 kts 190°
2026-05-05 12:55 15.98756 117.14560 38912 ft 492 kts 190°
2026-05-05 12:55 15.91958 117.13687 38912 ft 492 kts 190°
2026-05-05 12:56 15.85159 117.12814 38910 ft 492 kts 190°
2026-05-05 12:56 15.78359 117.11941 38911 ft 493 kts 190°
2026-05-05 12:57 15.71555 117.11068 38908 ft 493 kts 190°
2026-05-05 12:57 15.64747 117.10195 38908 ft 493 kts 190°
2026-05-05 12:58 15.57943 117.09324 38900 ft 493 kts 189°
2026-05-05 12:58 15.51139 117.08453 38908 ft 493 kts 189°
2026-05-05 12:59 15.44340 117.07583 38908 ft 492 kts 189°
2026-05-05 12:59 15.37538 117.06713 38909 ft 492 kts 189°
2026-05-05 13:00 15.27338 117.05410 38905 ft 493 kts 189°
2026-05-05 13:01 15.13733 117.03675 38908 ft 492 kts 189°
2026-05-05 13:01 15.06936 117.02808 38908 ft 492 kts 189°
2026-05-05 13:02 15.00136 117.01942 38907 ft 492 kts 189°
2026-05-05 13:02 14.93340 117.01077 38905 ft 492 kts 189°
2026-05-05 13:03 14.86530 117.00210 38914 ft 493 kts 189°
2026-05-05 13:03 14.79725 116.99345 38911 ft 493 kts 189°
2026-05-05 13:04 14.72909 116.98479 38909 ft 493 kts 189°
2026-05-05 13:04 14.66098 116.97614 38911 ft 493 kts 189°
2026-05-05 13:05 14.59285 116.96750 38905 ft 493 kts 190°
2026-05-05 13:05 14.52514 116.95891 38906 ft 493 kts 190°
2026-05-05 13:06 14.45702 116.95028 38908 ft 493 kts 189°
2026-05-05 13:06 14.38882 116.94164 38907 ft 493 kts 189°
2026-05-05 13:07 14.32071 116.93302 38908 ft 493 kts 190°
2026-05-05 13:07 14.25247 116.92438 38998 ft 494 kts 190°
2026-05-05 13:08 14.21837 116.92008 39162 ft 494 kts 190°
2026-05-05 13:08 14.18428 116.91578 39317 ft 493 kts 189°
2026-05-05 13:08 14.15027 116.91153 39466 ft 492 kts 190°
2026-05-05 13:08 14.11634 116.90725 39609 ft 491 kts 190°
2026-05-05 13:09 14.08246 116.90295 39755 ft 490 kts 190°
2026-05-05 13:09 14.04862 116.89866 39903 ft 489 kts 190°
2026-05-05 13:09 14.01482 116.89438 40015 ft 489 kts 189°
2026-05-05 13:09 13.98110 116.89011 40128 ft 489 kts 189°
2026-05-05 13:10 13.94736 116.88585 40232 ft 489 kts 189°
2026-05-05 13:10 13.91361 116.88159 40338 ft 488 kts 189°
2026-05-05 13:10 13.87991 116.87734 40461 ft 487 kts 189°
2026-05-05 13:10 13.84628 116.87311 40581 ft 487 kts 189°
2026-05-05 13:11 13.81270 116.86888 40688 ft 486 kts 189°
2026-05-05 13:11 13.77917 116.86465 40796 ft 486 kts 189°
2026-05-05 13:11 13.71207 116.85621 40914 ft 486 kts 189°
2026-05-05 13:12 13.64503 116.84777 40904 ft 485 kts 189°
2026-05-05 13:12 13.57803 116.83934 40902 ft 485 kts 189°
2026-05-05 13:13 13.51108 116.83093 40910 ft 485 kts 189°
2026-05-05 13:13 13.44414 116.82252 40899 ft 485 kts 189°
2026-05-05 13:14 13.37718 116.81411 40899 ft 485 kts 189°
2026-05-05 13:14 13.31017 116.80570 40911 ft 485 kts 189°
2026-05-05 13:15 13.24313 116.79729 40908 ft 485 kts 189°
2026-05-05 13:15 13.18743 116.79031 40907 ft 485 kts 189°
2026-05-05 13:16 13.12044 116.78192 40910 ft 485 kts 189°
2026-05-05 13:16 13.05338 116.77352 40904 ft 485 kts 189°
2026-05-05 13:17 12.98626 116.76512 40910 ft 486 kts 189°
2026-05-05 13:17 12.91915 116.75673 40911 ft 486 kts 189°
2026-05-05 13:18 12.85201 116.74821 40905 ft 486 kts 190°
2026-05-05 13:18 12.78505 116.73873 40909 ft 486 kts 190°
2026-05-05 13:19 12.71808 116.72906 40909 ft 486 kts 190°
2026-05-05 13:19 12.65112 116.71954 40909 ft 486 kts 190°
2026-05-05 13:20 12.58408 116.71011 40909 ft 486 kts 190°
2026-05-05 13:20 12.51702 116.70071 40910 ft 486 kts 190°
2026-05-05 13:21 12.44998 116.69132 40909 ft 486 kts 190°
2026-05-05 13:21 12.38295 116.68192 40912 ft 486 kts 189°
2026-05-05 13:22 12.31588 116.67253 40911 ft 486 kts 189°
2026-05-05 13:22 12.24887 116.66315 40910 ft 486 kts 189°
2026-05-05 13:23 12.18178 116.65376 40910 ft 486 kts 189°
2026-05-05 13:23 12.11474 116.64438 40906 ft 486 kts 189°
2026-05-05 13:24 12.04767 116.63501 40905 ft 486 kts 189°
2026-05-05 13:24 11.98067 116.62564 40906 ft 486 kts 189°
2026-05-05 13:25 11.91403 116.61634 40906 ft 486 kts 189°
2026-05-05 13:25 11.84699 116.60698 40908 ft 486 kts 189°
2026-05-05 13:26 11.77995 116.59763 40906 ft 486 kts 189°
2026-05-05 13:26 11.71293 116.58828 40908 ft 487 kts 189°
2026-05-05 13:27 11.64582 116.57893 40909 ft 487 kts 189°
2026-05-05 13:27 11.57876 116.56958 40907 ft 486 kts 189°
2026-05-05 13:28 11.51167 116.56024 40908 ft 487 kts 189°
2026-05-05 13:28 11.44462 116.55091 40904 ft 486 kts 189°
2026-05-05 13:29 11.37753 116.54158 40908 ft 486 kts 189°
2026-05-05 13:29 11.31052 116.53226 40906 ft 486 kts 189°
2026-05-05 13:30 11.24354 116.52295 40908 ft 486 kts 189°
2026-05-05 13:30 11.17656 116.51365 40906 ft 486 kts 189°
2026-05-05 13:31 11.10959 116.50435 40901 ft 486 kts 189°
2026-05-05 13:31 11.04255 116.49504 40903 ft 487 kts 189°
2026-05-05 13:32 10.97536 116.48572 40905 ft 487 kts 189°
2026-05-05 13:32 10.90818 116.47641 40906 ft 487 kts 189°
2026-05-05 13:33 10.84100 116.46710 40906 ft 487 kts 189°
2026-05-05 13:33 10.77382 116.45779 40905 ft 487 kts 189°
2026-05-05 13:34 10.70718 116.44856 40903 ft 487 kts 189°
2026-05-05 13:34 10.64003 116.43927 40904 ft 487 kts 189°
2026-05-05 13:35 10.57293 116.42998 40905 ft 487 kts 189°
2026-05-05 13:35 10.50582 116.42070 40905 ft 487 kts 189°
2026-05-05 13:36 10.43873 116.41143 40905 ft 487 kts 189°
2026-05-05 13:36 10.37159 116.40215 40906 ft 487 kts 189°
2026-05-05 13:37 10.30442 116.39288 40906 ft 487 kts 189°
2026-05-05 13:37 10.23730 116.38361 40906 ft 487 kts 188°
2026-05-05 13:38 10.17019 116.37435 40909 ft 487 kts 188°
2026-05-05 13:38 10.10304 116.36509 40905 ft 488 kts 189°
2026-05-05 13:39 10.03575 116.35581 40905 ft 488 kts 189°
2026-05-05 13:39 9.96844 116.34653 40906 ft 488 kts 188°
2026-05-05 13:40 9.90113 116.33726 40908 ft 488 kts 189°
2026-05-05 13:40 9.83381 116.32799 40908 ft 488 kts 188°
2026-05-05 13:41 9.76655 116.31873 40908 ft 487 kts 188°
2026-05-05 13:41 9.69939 116.30950 40908 ft 487 kts 188°
2026-05-05 13:42 9.63230 116.30027 40905 ft 487 kts 188°
2026-05-05 13:42 9.56518 116.29104 40905 ft 486 kts 188°
2026-05-05 13:43 9.49807 116.28182 40907 ft 486 kts 188°
2026-05-05 13:43 9.43109 116.27262 40908 ft 485 kts 188°
2026-05-05 13:44 9.36419 116.26344 40909 ft 485 kts 188°
2026-05-05 13:44 9.29738 116.25426 40906 ft 485 kts 188°
2026-05-05 13:45 9.23038 116.24507 40908 ft 487 kts 188°
2026-05-05 13:45 9.16319 116.23585 40904 ft 487 kts 188°
2026-05-05 13:46 9.09606 116.22665 40908 ft 487 kts 187°
2026-05-05 13:46 9.02894 116.21745 40908 ft 486 kts 187°
2026-05-05 13:47 8.96188 116.20827 40908 ft 486 kts 187°
2026-05-05 13:47 8.89480 116.19908 40907 ft 486 kts 187°
2026-05-05 13:48 8.82772 116.18989 40909 ft 486 kts 187°
2026-05-05 13:48 8.76059 116.18071 40906 ft 487 kts 187°
2026-05-05 13:49 8.69341 116.17152 40906 ft 487 kts 187°
2026-05-05 13:49 8.62620 116.16233 40906 ft 487 kts 187°
2026-05-05 13:50 8.55901 116.15315 40906 ft 487 kts 187°
2026-05-05 13:50 8.49178 116.14396 40906 ft 487 kts 187°
2026-05-05 13:51 8.42459 116.13478 40909 ft 488 kts 187°
2026-05-05 13:51 8.35732 116.12559 40909 ft 488 kts 187°
2026-05-05 13:52 8.29010 116.11642 40906 ft 488 kts 187°
2026-05-05 13:52 8.22280 116.10723 40906 ft 488 kts 187°
2026-05-05 13:53 8.15555 116.09806 40904 ft 488 kts 187°
2026-05-05 13:53 8.08875 116.08895 40903 ft 487 kts 187°
2026-05-05 13:54 8.02155 116.07979 40906 ft 487 kts 187°
2026-05-05 13:54 7.95436 116.07063 40905 ft 487 kts 187°
2026-05-05 13:55 7.88715 116.06148 40906 ft 487 kts 187°
2026-05-05 13:55 7.81999 116.05233 40906 ft 487 kts 187°
2026-05-05 13:56 7.75280 116.04318 40905 ft 487 kts 187°
2026-05-05 13:56 7.68567 116.03404 40905 ft 487 kts 187°
2026-05-05 13:57 7.61852 116.02491 40908 ft 487 kts 187°
2026-05-05 13:57 7.55139 116.01578 40909 ft 487 kts 187°
2026-05-05 13:58 7.48422 116.00665 40907 ft 487 kts 187°
2026-05-05 13:58 7.41713 115.99753 40906 ft 486 kts 187°
2026-05-05 13:59 7.31658 115.98387 40906 ft 486 kts 187°
2026-05-05 14:00 7.22733 115.97175 40908 ft 486 kts 187°
2026-05-05 14:00 7.16029 115.96264 40908 ft 486 kts 187°
2026-05-05 14:01 7.09319 115.95354 40906 ft 486 kts 187°
2026-05-05 14:01 7.02604 115.94442 40906 ft 488 kts 187°
2026-05-05 14:02 6.95867 115.93529 40906 ft 489 kts 187°
2026-05-05 14:02 6.89118 115.92613 40906 ft 490 kts 187°
2026-05-05 14:03 6.82373 115.91699 40905 ft 489 kts 187°
2026-05-05 14:03 6.75632 115.90785 40905 ft 488 kts 187°
2026-05-05 14:04 6.68897 115.89873 40905 ft 488 kts 187°
2026-05-05 14:04 6.62169 115.88961 40905 ft 488 kts 187°
2026-05-05 14:05 6.55437 115.88050 40903 ft 488 kts 187°
2026-05-05 14:05 6.48709 115.87139 40903 ft 488 kts 187°
2026-05-05 14:06 6.41977 115.86228 40903 ft 489 kts 187°
2026-05-05 14:06 6.35237 115.85316 40903 ft 489 kts 187°
2026-05-05 14:07 6.28497 115.84404 40900 ft 489 kts 187°
2026-05-05 14:07 6.21756 115.83493 40900 ft 489 kts 187°
2026-05-05 14:08 6.15021 115.82582 40894 ft 489 kts 187°
2026-05-05 14:08 6.08289 115.81672 40888 ft 488 kts 187°
2026-05-05 14:09 6.01561 115.80763 40886 ft 488 kts 187°
2026-05-05 14:09 5.94841 115.79855 40886 ft 487 kts 187°
2026-05-05 14:10 5.88114 115.78947 40881 ft 487 kts 187°
2026-05-05 14:10 5.81393 115.78039 40890 ft 487 kts 187°
2026-05-05 14:11 5.74675 115.77132 40896 ft 487 kts 187°
2026-05-05 14:11 5.67958 115.76226 40895 ft 487 kts 187°
2026-05-05 14:12 5.61245 115.75320 40895 ft 487 kts 187°
2026-05-05 14:12 5.54533 115.74414 40895 ft 487 kts 187°
2026-05-05 14:13 5.47821 115.73509 40906 ft 487 kts 187°
2026-05-05 14:13 5.41109 115.72604 40905 ft 487 kts 187°
2026-05-05 14:14 5.34398 115.71699 40905 ft 487 kts 187°
2026-05-05 14:14 5.27733 115.70801 40906 ft 487 kts 187°
2026-05-05 14:15 5.21017 115.69896 40919 ft 487 kts 187°
2026-05-05 14:15 5.14308 115.68992 40921 ft 487 kts 187°
2026-05-05 14:16 5.07599 115.68088 40928 ft 486 kts 187°
2026-05-05 14:16 5.00889 115.67185 40927 ft 486 kts 187°
2026-05-05 14:17 4.94187 115.66283 40946 ft 486 kts 187°
2026-05-05 14:17 4.87479 115.65380 40946 ft 486 kts 187°
2026-05-05 14:18 4.80776 115.64477 40969 ft 486 kts 187°
2026-05-05 14:18 4.74071 115.63575 40958 ft 486 kts 187°
2026-05-05 14:19 4.67375 115.62674 40955 ft 486 kts 187°
2026-05-05 14:19 4.60674 115.61773 40972 ft 486 kts 187°
2026-05-05 14:20 4.53979 115.60873 40972 ft 486 kts 187°
2026-05-05 14:20 4.47280 115.59972 40984 ft 486 kts 187°
2026-05-05 14:21 4.40581 115.59071 40984 ft 485 kts 187°
2026-05-05 14:21 4.33891 115.58171 40993 ft 485 kts 187°
2026-05-05 14:22 4.27203 115.57273 40993 ft 485 kts 187°
2026-05-05 14:22 4.20560 115.56381 40999 ft 485 kts 187°
2026-05-05 14:23 4.13872 115.55482 40998 ft 485 kts 187°
2026-05-05 14:23 4.07181 115.54584 41002 ft 485 kts 187°
2026-05-05 14:24 4.00486 115.53684 40998 ft 485 kts 187°
2026-05-05 14:24 3.93793 115.52784 41001 ft 486 kts 187°
2026-05-05 14:25 3.87094 115.51886 41001 ft 485 kts 187°
2026-05-05 14:25 3.80395 115.50987 40993 ft 485 kts 187°
2026-05-05 14:26 3.73700 115.50089 40993 ft 486 kts 187°
2026-05-05 14:26 3.67000 115.49190 40994 ft 486 kts 187°
2026-05-05 14:27 3.60305 115.48292 40993 ft 486 kts 187°
2026-05-05 14:27 3.53600 115.47394 40993 ft 486 kts 187°
2026-05-05 14:28 3.46905 115.46495 40993 ft 486 kts 187°
2026-05-05 14:28 3.40214 115.45597 40991 ft 486 kts 187°
2026-05-05 14:29 3.33513 115.44699 40990 ft 485 kts 187°
2026-05-05 14:29 3.26819 115.43802 40987 ft 485 kts 187°
2026-05-05 14:30 3.20126 115.42904 40987 ft 485 kts 187°
2026-05-05 14:30 3.13434 115.42007 40990 ft 485 kts 187°
2026-05-05 14:31 3.06735 115.41109 40989 ft 485 kts 187°
2026-05-05 14:31 3.00050 115.40213 40988 ft 485 kts 187°
2026-05-05 14:32 2.93357 115.39316 40986 ft 485 kts 186°
2026-05-05 14:32 2.86671 115.38421 40984 ft 485 kts 186°
2026-05-05 14:33 2.79985 115.37525 40985 ft 485 kts 186°
2026-05-05 14:33 2.73298 115.36630 40989 ft 485 kts 186°
2026-05-05 14:34 2.66609 115.35734 40986 ft 485 kts 186°
2026-05-05 14:34 2.59958 115.34843 40990 ft 485 kts 186°
2026-05-05 14:35 2.53264 115.33948 40997 ft 485 kts 186°
2026-05-05 14:35 2.46575 115.33052 40991 ft 485 kts 186°
2026-05-05 14:36 2.39831 115.32149 40992 ft 486 kts 186°
2026-05-05 14:36 2.33134 115.31252 40988 ft 486 kts 186°
2026-05-05 14:37 2.26478 115.30362 40988 ft 486 kts 186°
2026-05-05 14:37 2.19778 115.29465 40988 ft 486 kts 186°
2026-05-05 14:38 2.13079 115.28569 40990 ft 486 kts 186°
2026-05-05 14:38 2.06374 115.27672 40993 ft 486 kts 186°
2026-05-05 14:39 1.99671 115.26775 40989 ft 486 kts 186°
2026-05-05 14:39 1.92963 115.25877 40985 ft 487 kts 186°
2026-05-05 14:40 1.86249 115.24979 40987 ft 487 kts 186°
2026-05-05 14:40 1.79539 115.24081 40986 ft 487 kts 186°
2026-05-05 14:41 1.72826 115.23184 40986 ft 487 kts 186°
2026-05-05 14:41 1.66108 115.22285 40985 ft 488 kts 186°
2026-05-05 14:42 1.59378 115.21386 40982 ft 488 kts 186°
2026-05-05 14:42 1.52643 115.20485 40982 ft 488 kts 186°
2026-05-05 14:43 1.45912 115.19585 40979 ft 488 kts 186°
2026-05-05 14:43 1.39184 115.18685 40976 ft 488 kts 186°
2026-05-05 14:44 1.32450 115.17785 40968 ft 488 kts 186°
2026-05-05 14:44 1.25716 115.16885 40971 ft 488 kts 186°
2026-05-05 14:45 1.20115 115.16136 40962 ft 488 kts 186°
2026-05-05 14:45 1.13380 115.15236 40969 ft 488 kts 186°
2026-05-05 14:46 1.05546 115.14188 40956 ft 488 kts 186°
2026-05-05 14:46 0.99904 115.13434 40959 ft 488 kts 186°
2026-05-05 14:47 0.93173 115.12535 40949 ft 488 kts 186°
2026-05-05 14:47 0.86437 115.11634 40950 ft 488 kts 186°
2026-05-05 14:48 0.79709 115.10736 40945 ft 488 kts 186°
2026-05-05 14:48 0.72976 115.09835 40945 ft 488 kts 186°
2026-05-05 14:49 0.66243 115.08935 40949 ft 488 kts 186°
2026-05-05 14:49 0.59512 115.08036 40950 ft 487 kts 186°
2026-05-05 14:50 0.52830 115.07143 40943 ft 487 kts 186°
2026-05-05 14:50 0.46112 115.06246 40941 ft 487 kts 186°
2026-05-05 14:51 0.39387 115.05347 40939 ft 487 kts 186°
2026-05-05 14:51 0.32666 115.04449 40933 ft 487 kts 186°
2026-05-05 14:52 0.25938 115.03550 40938 ft 487 kts 186°
2026-05-05 14:52 0.19217 115.02652 40939 ft 487 kts 186°
2026-05-05 14:53 0.12500 115.01754 40937 ft 487 kts 186°
2026-05-05 14:53 0.05779 115.00856 40939 ft 487 kts 186°
2026-05-05 14:54 -0.00940 114.99959 40933 ft 487 kts 186°
2026-05-05 14:54 -0.07665 114.99060 40935 ft 488 kts 186°
2026-05-05 14:55 -0.14395 114.98161 40929 ft 488 kts 186°
2026-05-05 14:55 -0.21113 114.97159 40932 ft 488 kts 189°
2026-05-05 14:56 -0.27789 114.95839 40922 ft 489 kts 190°
2026-05-05 14:56 -0.34449 114.94496 40926 ft 489 kts 190°
2026-05-05 14:57 -0.41125 114.93199 40919 ft 488 kts 190°
2026-05-05 14:57 -0.47802 114.91929 40913 ft 488 kts 189°
2026-05-05 14:58 -0.54480 114.90665 40912 ft 488 kts 189°
2026-05-05 14:58 -0.61162 114.89399 40914 ft 489 kts 189°
2026-05-05 14:59 -0.67841 114.88132 40910 ft 489 kts 189°
2026-05-05 14:59 -0.74527 114.86863 40907 ft 490 kts 189°
2026-05-05 15:00 -0.80107 114.85804 40910 ft 492 kts 189°
2026-05-05 15:00 -0.87970 114.84312 40906 ft 492 kts 189°
2026-05-05 15:01 -0.94743 114.83559 40908 ft 490 kts 179°
2026-05-05 15:01 -1.01560 114.83645 40899 ft 490 kts 177°
2026-05-05 15:02 -1.08377 114.83873 40906 ft 489 kts 177°
2026-05-05 15:02 -1.15175 114.84113 40909 ft 489 kts 177°
2026-05-05 15:03 -1.21970 114.84337 40905 ft 488 kts 177°
2026-05-05 15:03 -1.28767 114.84552 40911 ft 488 kts 177°
2026-05-05 15:04 -1.35558 114.84764 40908 ft 488 kts 177°
2026-05-05 15:04 -1.42353 114.84977 40910 ft 488 kts 177°
2026-05-05 15:05 -1.52537 114.85297 40904 ft 488 kts 177°
2026-05-05 15:06 -1.59322 114.85511 40909 ft 488 kts 177°